Location: NJAA Observatory
(40.6819°N, 74.8979°W)
Time: 00:53:56
(UTC-05:00)

Courier 1B - All Passes

Search period start: 18 January 2017 00:00
Search period end: 28 January 2017 00:00
Orbit: 962 x 1209 km, 28.3° (Epoch: 17 January)

Date Brightness Start Highest point End Pass type
(mag) Time Alt. Az. Time Alt. Az. Time Alt. Az.
18 Jan - 13:49:51 10° S 13:52:47 12° SSE 13:55:40 10° SE daylight
18 Jan - 15:39:58 10° SW 15:46:00 25° SSE 15:51:50 10° ESE daylight
18 Jan - 17:32:59 10° WSW 17:39:26 31° S 17:45:34 10° ESE visible
18 Jan - 19:27:12 10° WSW 19:32:43 23° SSW 19:38:00 10° SE visible
19 Jan - 14:46:37 10° SSW 14:52:20 22° SSE 14:57:54 10° ESE daylight
19 Jan - 16:39:12 10° SW 16:45:44 31° S 16:52:01 10° ESE daylight
19 Jan - 18:33:07 10° WSW 18:39:08 27° SSW 18:44:52 10° SE visible
19 Jan - 20:28:54 10° SW 20:32:11 14° SSW 20:35:23 10° S visible
20 Jan - 13:53:30 10° SSW 13:58:40 19° SSE 14:03:45 10° ESE daylight
20 Jan - 15:45:30 10° SW 15:52:02 30° S 15:58:22 10° ESE daylight
20 Jan - 17:39:07 10° WSW 17:45:30 30° S 17:51:35 10° SE visible
20 Jan - 19:34:06 10° WSW 19:38:40 18° SSW 19:43:06 10° SSE visible
21 Jan - 13:00:45 10° S 13:05:01 16° SSE 13:09:16 10° ESE daylight
21 Jan - 14:51:54 10° SW 14:58:19 28° S 15:04:35 10° ESE daylight
21 Jan - 16:45:11 10° WSW 16:51:48 31° S 16:58:10 10° SE daylight
21 Jan - 18:39:42 10° WSW 18:45:07 22° SSW 18:50:20 10° SSE visible
22 Jan - 12:08:46 10° S 12:11:24 12° SSE 12:14:03 10° SE daylight
22 Jan - 13:58:27 10° SW 14:04:37 25° SSE 14:10:41 10° ESE daylight
22 Jan - 15:51:21 10° WSW 15:58:05 32° S 16:04:37 10° ESE daylight
22 Jan - 17:45:29 10° WSW 17:51:30 25° SSW 17:57:17 10° SE visible
22 Jan - 19:42:17 10° SW 19:44:32 12° SSW 19:46:46 10° S visible
23 Jan - 13:05:13 10° SSW 13:10:55 22° SSE 13:16:37 10° ESE daylight
23 Jan - 14:57:37 10° SW 15:04:21 32° S 15:10:57 10° ESE daylight
23 Jan - 16:51:25 10° WSW 16:57:50 29° S 17:04:02 10° SE daylight
23 Jan - 18:46:53 10° WSW 18:51:01 16° SSW 18:55:03 10° S visible
24 Jan - 12:12:15 10° SSW 12:17:15 18° SSE 12:22:18 10° ESE daylight
24 Jan - 14:03:58 10° SW 14:10:37 30° S 14:17:11 10° ESE daylight
24 Jan - 15:57:28 10° WSW 16:04:08 31° S 16:10:38 10° SE daylight
24 Jan - 17:52:15 10° WSW 17:57:27 20° SSW 18:02:29 10° SSE visible
25 Jan - 11:19:43 10° S 11:23:38 15° SSE 11:27:34 10° ESE daylight
25 Jan - 13:10:29 10° SW 13:16:53 28° SSE 13:23:17 10° ESE daylight
25 Jan - 15:03:36 10° WSW 15:10:24 33° S 15:17:04 10° ESE daylight
25 Jan - 16:57:56 10° WSW 17:03:49 24° SSW 17:09:32 10° SSE daylight
26 Jan - 10:28:24 10° SSE 10:30:03 11° SSE 10:31:43 10° SE daylight
26 Jan - 12:17:09 10° SW 12:23:10 25° SSE 12:29:14 10° ESE daylight
26 Jan - 14:09:51 10° WSW 14:16:38 33° S 14:23:24 10° ESE daylight
26 Jan - 16:03:49 10° WSW 16:10:08 27° SSW 16:16:20 10° SE daylight
26 Jan - 17:59:55 10° SW 18:03:18 13° SSW 18:06:37 10° S visible
27 Jan - 11:24:04 10° SSW 11:29:30 21° SSE 11:35:02 10° ESE daylight
27 Jan - 13:16:12 10° SW 13:22:53 32° S 13:29:37 10° ESE daylight
27 Jan - 15:09:50 10° WSW 15:16:25 30° S 15:22:57 10° SE daylight
27 Jan - 17:04:58 10° WSW 17:09:43 17° SSW 17:14:22 10° SSE daylight
